カタログに戻る

STARLINK-34812

運用中通信VLEO
NORAD 66026·PAYLOAD·🇺🇸 United States

打ち上げ Oct 16, 2025 から Cape Canaveral Space Force Station

Loading…

次のパス (今後24時間)

TLE

最新Source: CelesTrak SupGP

元期: Sep 14, 2026, 22:49 UTC

1 66026C 25232X   26257.95118056  .00045024  00000+0  13304-2 0  2575
2 66026  53.1585 301.6122 0001529  79.8801  54.1654 15.34363642    17

AllMySatでSTARLINK-34812をリアルタイム追跡

Download on the App Store